カタログに戻る

ARASE

ERG

運用中科学HEO
NORAD 41896·PAYLOAD·🇯🇵 Japan

打ち上げ Dec 20, 2016 から Uchinoura Space Center

Loading…

次のパス (今後24時間)

TLE

最新Source: Space-Track

元期: Sep 13, 2026, 00:15 UTC

1 41896U 16080A   26256.01079557 -.00000078  00000-0  39211-3 0  9993
2 41896  31.9435 333.6941 6982802 100.4583 338.4704  2.57785117 90540

AllMySatでARASEをリアルタイム追跡

Download on the App Store